Starlink 30714

operational
NORAD ID: 57939 Int'l Des: 2023-148 Owner: SPXS Country: US Constellation: starlink
LEOCIRCULAR

Starlink 30714について

説明を読み込み中...

リアルタイム位置

3D地球を読み込み中...

次回通過

高度履歴

Altitude vs Time

uPlot chart will show altitude changes over time

軌道要素

1 57939U 23148E 25258.02863082 -.00000188 00000-0 57674-5 0 9994
2 57939 53.1592 120.4139 0001119 69.4272 290.6848 15.30192795111521
Epoch: Sep 15, 2025 • Age: 21 hours

現在のステータス

高度 477.0 km
速度 7.63 km/s
衛星直下点 -3.66°S, 24.08°W
打ち上げ日 Sep 25, 2023
運用期間 1.9 years
タイプ internet

技術仕様

分類 Payload
質量 730.00 kg
乾燥質量 700.00 kg
総質量 730.00 kg
長さ 0.30 m
直径 4.10 m
スパン 29.00 m
形状 Box + pan
製造者 SPXS
バスタイプ Starlink V2M
フェーズステータス In Orbit
所有者/国 SPXS/US

大規模コンステレーション

Loading constellations...